Weather History for Pascagoula, MS

Change the Weather History Date:

Saturday, February 16, 2013

  Actual Average Record
Temperature  
Mean Temperature 44 °F -  
Max Temperature 54 °F 64 °F 79 °F (2000)
Min Temperature 32 °F 46 °F 23 °F (1991)
Degree Days  
Heating Degree Days 20    
Moisture  
Dew Point 26 °F    
Average Humidity 47    
Maximum Humidity 88    
Minimum Humidity 22    
Precipitation  
Precipitation 0.00 in - - ()
Sea Level Pressure  
Sea Level Pressure 30.20 in    
Wind  
Wind Speed 9 mph (NNW)    
Max Wind Speed 17 mph    
Max Gust Speed 29 mph    
Visibility 10 miles    
Events      
Averages and records for this station are not official NWS values.
T = Trace of Precipitation, MM = Missing Value Source: NWS Daily Summary

Daily Weather History Graph

Daily Weather History Graph

Search for Another Location

Airport:

Trip Planner

Search our weather history database for the weather conditions in past years. The results will help you decide how hot, cold, wet, or windy it might be!

Date:

Astronomy

Feb. 16, 2013 Rise Set
Actual Time 6:33 AM CST 5:43 PM CST
Civil Twilight 6:08 AM CST 6:07 PM CST
Nautical Twilight 5:40 AM CST 6:36 PM CST
Astronomical Twilight 5:12 AM CST 7:04 PM CST
Moon 10:16 AM CST (2/16) No Moon Set
Length of Visible Light 11h 59m
Length of Day
11h 10m
Waxing Crescent, 39% of the Moon is Illuminated
Feb 16
Waxing Crescent
Feb 17
First Quarter
Feb 25
Full
Mar 4
Last Quarter
Mar 11
New

Hourly Weather History & Observations

Time (CST) Temp. Windchill Dew Point Humidity Pressure Visibility Wind Dir Wind Speed Gust Speed Precip Events Conditions
12:53 AM 50.0 °F - 37.9 °F 63% 30.12 in 10.0 mi North 9.2 mph 16.1 mph N/A   Clear
1:53 AM 50.0 °F - 36.0 °F 59% 30.11 in 10.0 mi North 9.2 mph - N/A   Mostly Cloudy
2:53 AM 51.1 °F - 34.0 °F 52% 30.12 in 10.0 mi Variable 6.9 mph - N/A   Overcast
3:53 AM 50.0 °F - 34.0 °F 54% 30.12 in 10.0 mi North 11.5 mph 17.3 mph N/A   Overcast
4:53 AM 50.0 °F - 35.1 °F 57% 30.15 in 10.0 mi Calm Calm - N/A   Overcast
5:53 AM 48.0 °F - 34.0 °F 58% 30.16 in 10.0 mi NW 4.6 mph - N/A   Overcast
6:53 AM 46.0 °F 43.1 °F 33.1 °F 61% 30.17 in 10.0 mi NW 5.8 mph - N/A   Clear
7:53 AM 46.9 °F - 30.9 °F 54% 30.21 in 10.0 mi Variable 6.9 mph 21.9 mph N/A   Clear
8:53 AM 48.9 °F - 30.0 °F 48% 30.22 in 10.0 mi NW 12.7 mph 18.4 mph N/A   Clear
9:53 AM 50.0 °F - 24.1 °F 36% 30.23 in 10.0 mi NNW 16.1 mph 23.0 mph N/A   Clear
10:53 AM 52.0 °F - 21.9 °F 31% 30.23 in 10.0 mi NNW 15.0 mph 23.0 mph N/A   Clear
11:53 AM 52.0 °F - 21.0 °F 30% 30.21 in 10.0 mi NNW 11.5 mph 23.0 mph N/A   Clear
12:53 PM 53.1 °F - 19.9 °F 27% 30.18 in 10.0 mi NNW 13.8 mph 21.9 mph N/A   Clear
1:53 PM 53.1 °F - 15.1 °F 22% 30.16 in 10.0 mi NW 17.3 mph 28.8 mph N/A   Partly Cloudy
2:53 PM 54.0 °F - 17.1 °F 23% 30.16 in 10.0 mi NNW 15.0 mph 25.3 mph N/A   Clear
3:53 PM 52.0 °F - 16.0 °F 24% 30.17 in 10.0 mi NNW 15.0 mph 21.9 mph N/A   Clear
4:53 PM 50.0 °F - 12.9 °F 23% 30.18 in 10.0 mi NW 12.7 mph 21.9 mph N/A   Clear
5:53 PM 48.0 °F - 15.1 °F 27% 30.21 in 10.0 mi NNW 10.4 mph 17.3 mph N/A   Clear
6:53 PM 46.0 °F 43.1 °F 18.0 °F 33% 30.24 in 10.0 mi NW 5.8 mph - N/A   Clear
7:53 PM 41.0 °F 38.0 °F 23.0 °F 49% 30.27 in 10.0 mi North 4.6 mph - N/A   Clear
8:53 PM 39.0 °F 36.8 °F 24.1 °F 55% 30.29 in 10.0 mi North 3.5 mph - N/A   Clear
9:53 PM 36.0 °F - 26.1 °F 67% 30.30 in 10.0 mi Calm Calm - N/A   Clear
10:53 PM 35.1 °F - 28.9 °F 78% 30.30 in 10.0 mi Calm Calm - N/A   Clear
11:53 PM 32.0 °F - 28.9 °F 88% 30.32 in 10.0 mi Calm Calm - N/A   Clear